SPACEBEE-149 (52407 NORAD) Tracking and Keplerian Element Data

This shows tracking and keplerian element data for the satellite.

Feedback or suggestion? Click here.




ElementValue
Catalog52407
NameSPACEBEE-149
Epoch Orbit812
Epoch Day166.95995226
Epoch Year2022
RAAN251.8818
Inclination97.4498
Eccentricity0.0010448
Argument of Perigee172.643
Mean Anonmoly187.4957
Mean Motion15.13338666
Decay Rate9.886E-05
L11 52407U 22047P 22166.95995226 .00009886 00000+0 55730-3 0 9990
L22 52407 97.4498 251.8818 0010448 172.6430 187.4957 15.13338666 8128

Live tracking and technical data element details for SPACEBEE-149 (NORAD 52407). SPACEBEE-149 can be tracked NOW for your location showing map with azimuth and elevation plus other details from your city location.

Track the satellite on the map from your city or location and see movement details for azimuth, elevation, latitude, longitude, range, height, and movement on the map or in text.







IsCatalogInMostPopularTable: catalog: 52407, numindb: 1
Update: records affected: 1



GetName: 52407 SPACEBEE-149

Hit Count: updated at: Mon, 27 Jun 2022 05:49:16 GMT